Location: Gleizolles
(44.4833°N, 6.7667°E)
Time: 20:06:54
(UTC+00:00)

Cosmos 921 Rocket - Pass Details

Date: 09 April 2020
Orbit: 572 x 632 km, 75.8° (Epoch: 23 May)

Event Time Altitude Azimuth Distance (km) Brightness Sun altitude
Rises 19:00:02 0° 348° (NNW) 2,789 6.9 -9.3°
Reaches altitude 10° 19:02:21 10° 356° (N) 1,888 5.9 -9.6°
Maximum altitude 19:06:19 41° 67° (ENE) 847 3.4 -10.3°
Enters shadow 19:09:44 13° 135° (SE) 1,680 4.7 -10.9°
